Location: Ch�ze
(42.9000°N, 0.0333°W)
Time: 23:21:29
(UTC+00:00)

S3M - Pass Details

Date: 24 January 2021
Orbit: 949 x 1005 km, 83.0° (Epoch: 24 February)

Event Time Altitude Azimuth Distance (km) Brightness Sun altitude
Rises 19:48:55 0° 350° (N) 3,633 7.1 -30.3°
Reaches altitude 10° 19:51:25 10° 348° (NNW) 2,682 6.4 -30.8°
Enters shadow 19:57:16 72° 285° (WNW) 1,000 4.0 -31.9°
